Weather History for Ontario, OR

Change the Weather History Date:

Sunday, February 9, 2014

  Actual Average Record
Temperature  
Mean Temperature 31 °F 31 °F  
Max Temperature 39 °F 41 °F 57 °F (2007)
Min Temperature 23 °F 22 °F -20 °F (1989)
Degree Days  
Heating Degree Days 34 34  
Month to date heating degree days 342 311  
Since 1 July heating degree days 4289 4054  
Cooling Degree Days 0 0  
Month to date cooling degree days 0 0  
Year to date cooling degree days 0 0  
Moisture  
Dew Point 29 °F    
Average Humidity 91    
Maximum Humidity 100    
Minimum Humidity 82    
Precipitation  
Precipitation T in 0.03 in 0.13 in (1962)
Month to date precipitation 0.73 0.25  
Year to date precipitation 1.37 1.43  
Sea Level Pressure  
Sea Level Pressure 30.05 in    
Wind  
Wind Speed 3 mph (West)    
Max Wind Speed 8 mph    
Max Gust Speed 10 mph    
Visibility 3 miles    
Events Fog    
T = Trace of Precipitation, MM = Missing Value Source: NWS Daily Summary

Daily Weather History Graph

Daily Weather History Graph

Search for Another Location

Airport:

Trip Planner

Search our weather history database for the weather conditions in past years. The results will help you decide how hot, cold, wet, or windy it might be!

Date:

Astronomy

Feb. 09, 2014 Rise Set
Actual Time 7:55 AM MST 6:09 PM MST
Civil Twilight 7:25 AM MST 6:39 PM MST
Nautical Twilight 6:51 AM MST 7:13 PM MST
Astronomical Twilight 6:17 AM MST 7:47 PM MST
Moon 1:49 PM MST (2/9) 4:07 AM MST (2/9)
Length of Visible Light 11h 14m
Length of Day
10h 14m
Waxing Gibbous, 77% of the Moon is Illuminated
Feb 9
Waxing Gibbous
Feb 14
Full
Feb 22
Last Quarter
Mar 1
New
Mar 8
First Quarter

Hourly Weather History & Observations

Time (MST) Temp. Windchill Dew Point Humidity Pressure Visibility Wind Dir Wind Speed Gust Speed Precip Events Conditions
12:14 AM 30.9 °F 27.5 °F 28.9 °F 92% 29.88 in 2.5 mi WSW 3.5 mph - N/A   Overcast
12:20 AM 30.9 °F 27.5 °F 28.9 °F 92% 29.88 in 3.0 mi WSW 3.5 mph - N/A   Overcast
12:53 AM 30.9 °F 27.5 °F 28.9 °F 92% 29.95 in 4.0 mi WSW 3.5 mph - N/A   Overcast
1:53 AM 30.9 °F 26.2 °F 28.9 °F 92% 29.95 in 3.0 mi West 4.6 mph - N/A   Overcast
2:53 AM 30.9 °F - 28.9 °F 92% 29.97 in 4.0 mi Calm Calm - N/A   Overcast
3:53 AM 32.0 °F - 28.9 °F 88% 30.00 in 3.0 mi Calm Calm - N/A   Overcast
4:07 AM 32.0 °F - 28.9 °F 88% 29.95 in 3.0 mi Calm Calm - N/A   Overcast
4:53 AM 32.0 °F - 30.0 °F 92% 30.02 in 3.0 mi Calm Calm - N/A   Overcast
5:08 AM 32.0 °F - 30.0 °F 92% 29.97 in 3.0 mi Calm Calm - N/A   Overcast
5:20 AM 30.9 °F - 28.9 °F 92% 29.98 in 2.0 mi Calm Calm - N/A   Overcast
5:30 AM 30.9 °F - 30.0 °F 96% 29.98 in 1.8 mi Calm Calm - N/A   Overcast
5:40 AM 32.0 °F - 30.0 °F 92% 29.97 in 2.5 mi Calm Calm - N/A   Overcast
5:53 AM 30.9 °F - 30.0 °F 96% 30.03 in 2.0 mi Calm Calm - N/A   Overcast
6:12 AM 30.9 °F - 28.9 °F 92% 29.98 in 3.0 mi Calm Calm - N/A   Overcast
6:41 AM 30.9 °F 27.5 °F 28.9 °F 92% 29.98 in 2.5 mi NW 3.5 mph - N/A   Overcast
6:53 AM 30.9 °F 27.5 °F 28.9 °F 92% 30.05 in 2.5 mi WNW 3.5 mph - N/A   Overcast
7:16 AM 30.9 °F 27.5 °F 30.0 °F 96% 29.99 in 1.8 mi West 3.5 mph - N/A   Overcast
7:24 AM 30.9 °F 26.2 °F 30.0 °F 96% 30.00 in 0.8 mi West 4.6 mph - N/A   Overcast
7:53 AM 30.9 °F 26.2 °F 30.0 °F 96% 30.07 in 0.2 mi WSW 4.6 mph - N/A Fog Light Freezing Fog
8:48 AM 30.2 °F 25.4 °F 30.2 °F 100% 30.04 in 1.0 mi West 4.6 mph - N/A   Overcast
8:53 AM 30.9 °F 25.2 °F 30.0 °F 96% 30.11 in 1.0 mi West 5.8 mph - N/A   Overcast
9:02 AM 30.9 °F 25.2 °F 30.0 °F 96% 30.04 in 1.8 mi West 5.8 mph - N/A   Overcast
9:10 AM 30.9 °F 26.2 °F 30.0 °F 96% 30.05 in 2.0 mi WNW 4.6 mph - N/A   Overcast
9:20 AM 32.0 °F 27.5 °F 30.0 °F 92% 30.05 in 2.0 mi West 4.6 mph - 0.00 in   Overcast
9:28 AM 32.0 °F 26.4 °F 30.0 °F 92% 30.05 in 2.5 mi WSW 5.8 mph - 0.00 in   Overcast
9:44 AM 32.0 °F 26.4 °F 30.0 °F 92% 30.05 in 2.0 mi West 5.8 mph - 0.00 in   Overcast
9:53 AM 32.0 °F - 30.9 °F 96% 30.11 in 2.0 mi Calm Calm - 0.00 in   Overcast
10:02 AM 32.0 °F 28.7 °F 30.9 °F 96% 30.05 in 2.5 mi WNW 3.5 mph - N/A   Overcast
10:10 AM 32.0 °F 27.5 °F 30.0 °F 92% 30.05 in 3.0 mi West 4.6 mph - N/A   Overcast
10:16 AM 32.0 °F 26.4 °F 30.0 °F 92% 30.05 in 2.0 mi West 5.8 mph - N/A   Overcast
10:25 AM 32.0 °F 25.6 °F 30.0 °F 92% 30.06 in 1.8 mi WSW 6.9 mph - N/A   Overcast
10:30 AM 32.0 °F 27.5 °F 30.0 °F 92% 30.06 in 2.0 mi West 4.6 mph - N/A   Overcast
10:41 AM 32.0 °F 27.5 °F 30.9 °F 96% 30.07 in 2.5 mi WSW 4.6 mph - N/A   Overcast
10:53 AM 32.0 °F 28.7 °F 30.9 °F 96% 30.13 in 2.5 mi WNW 3.5 mph - N/A   Overcast
11:41 AM 33.1 °F 28.7 °F 30.9 °F 92% 30.07 in 2.0 mi WSW 4.6 mph - N/A   Overcast
11:51 AM 33.8 °F 29.6 °F 30.2 °F 87% 30.07 in 1.8 mi West 4.6 mph - N/A   Overcast
11:53 AM 33.1 °F 28.7 °F 30.9 °F 92% 30.14 in 2.0 mi West 4.6 mph - N/A   Overcast
12:22 PM 33.1 °F 26.1 °F 32.0 °F 96% 30.07 in 2.5 mi SW 8.1 mph - N/A   Overcast
12:38 PM 34.0 °F 28.0 °F 32.0 °F 92% 30.07 in 4.0 mi SW 6.9 mph - N/A   Overcast
12:53 PM 35.1 °F 30.1 °F 32.0 °F 89% 30.13 in 4.0 mi WSW 5.8 mph - N/A   Overcast
1:53 PM 36.0 °F 31.1 °F 32.0 °F 86% 30.11 in 6.0 mi WSW 5.8 mph - N/A   Scattered Clouds
2:53 PM 36.0 °F 33.3 °F 32.0 °F 86% 30.11 in 7.0 mi SSW 3.5 mph - N/A   Clear
3:53 PM 37.9 °F - 32.0 °F 79% 30.09 in 9.0 mi Calm Calm - N/A   Mostly Cloudy
4:53 PM 36.0 °F 32.1 °F 32.0 °F 86% 30.12 in 8.0 mi West 4.6 mph - N/A   Overcast
5:53 PM 36.0 °F - 32.0 °F 86% 30.10 in 7.0 mi Calm Calm - N/A   Overcast
6:53 PM 35.1 °F 30.1 °F 32.0 °F 89% 30.10 in 7.0 mi North 5.8 mph - N/A   Clear
7:53 PM 32.0 °F 26.4 °F 30.0 °F 92% 30.11 in 5.0 mi SW 5.8 mph - N/A   Clear
8:53 PM 32.0 °F 26.4 °F 28.9 °F 88% 30.11 in 6.0 mi WSW 5.8 mph - N/A   Clear
9:53 PM 30.9 °F 27.5 °F 28.9 °F 92% 30.12 in 7.0 mi West 3.5 mph - N/A   Clear
10:53 PM 28.9 °F - 27.0 °F 92% 30.13 in 3.0 mi Calm Calm - N/A   Clear
11:03 PM 28.0 °F - 26.1 °F 92% 30.07 in 2.0 mi Calm Calm - N/A   Clear
11:07 PM 28.0 °F - 25.0 °F 88% 30.07 in 1.0 mi Calm Calm - N/A   Clear
11:14 PM 28.0 °F 24.2 °F 25.0 °F 88% 30.07 in 0.5 mi NNW 3.5 mph - N/A Fog Light Freezing Fog
11:21 PM 25.0 °F - 23.0 °F 92% 30.07 in 0.2 mi Calm Calm - N/A Fog Light Freezing Fog
11:35 PM 24.1 °F 17.0 °F 21.9 °F 91% 30.08 in 1.5 mi WSW 5.8 mph - N/A   Scattered Clouds
11:37 PM 24.1 °F 18.2 °F 21.9 °F 91% 30.08 in 2.5 mi WSW 4.6 mph - N/A   Scattered Clouds
11:46 PM 25.0 °F 20.7 °F 23.0 °F 92% 30.08 in 1.8 mi WSW 3.5 mph - N/A   Partly Cloudy
11:53 PM 25.0 °F 19.3 °F 21.9 °F 88% 30.15 in 1.5 mi WSW 4.6 mph - N/A   Partly Cloudy